User: anonymous
Location: Oronoko Observatory
(41.9167°N, 86.3833°W)
Time: 09:01:54
(UTC-04:00)
Language:

PAYLOAD A - Orbit

View from above orbital plane
View from above orbital plane
View from above satellite
View from above satellite

Ground track
Ground track

The orbit data is extracted from the following two-line orbital elements,

1 27840U 03031A   14292.49107448  .00000167  00000-0  64779-4 0  6777
2 27840 098.2267 316.0754 0099092 167.3284 322.2559 14.38732326593580
Epoch (UTC): 19 October 2014 11:47:08
Eccentricity: 0.0099092
inclination: 98.2267°
perigee height: 692 km
apogee height: 833 km
right ascension of ascending node: 316.0754°
argument of perigee: 167.3284°
revolutions per day: 14.38732326
mean anomaly at epoch: 322.2559°
orbit number at epoch: 59358

The dashed part of the orbit path shows where the satellite is in the earth's shadow,  

DLR